This demonstration page uses our WeatherBlox Daily Observations layout. Learn more.

Left ArrowRight Arrow

36.17497, -115.13722

Hourly Observations for March 22, 2016

Temp ( °F °C ) Dew Point ( °F °C ) Humidity (%) Winds ( mph kmh ) Pressure ( in mb ) Visibility ( mi km ) Precip ( " mm )
12:53 am 00:53 Clear 66 18.9 31 -0.6 27 27 W 17 28 29.77 1008 10 16.0934 0 0
1:53 am 01:53 Clear 63 17.2 30 -1.1 29 29 WSW 30 48 29.71 1006 10 16.0934 0 0
2:53 am 02:53 Clear 62 16.7 29 -1.7 29 29 W 24 39 29.7 1006 10 16.0934 0 0
3:53 am 03:53 Clear 61 16.1 26 -3.3 26 26 W 22 35 29.71 1006 10 16.0934 0 0
4:53 am 04:53 Clear 59 15 26 -3.3 28 28 WSW 16 26 29.73 1007 10 16.0934 0 0
5:53 am 05:53 Clear 58 14.4 27 -2.8 31 31 W 7 11 29.75 1008 10 16.0934 0 0
6:53 am 06:53 Sunny 57 13.9 29 -1.7 34 34 WSW 17 28 29.78 1008 10 16.0934 0 0
7:53 am 07:53 Sunny 59 15 26 -3.3 28 28 NNW 12 19 29.81 1010 10 16.0934 0 0
8:53 am 08:53 Sunny 62 16.7 26 -3.3 25 25 NNW 30 48 29.83 1010 10 16.0934 0 0
9:53 am 09:53 Sunny 63 17.2 24 -4.4 23 23 NW 31 50 29.86 1011 10 16.0934 0 0
10:53 am 10:53 Sunny 64 17.8 17 -8.3 16 16 N 22 35 29.89 1012 10 16.0934 0 0
11:53 am 11:53 Mostly Sunny 64 17.8 11 -11.7 12 12 NNW 30 48 29.89 1012 10 16.0934 0 0
12:53 pm 12:53 Cloudy 63 17.2 10 -12.2 12 12 NNW 21 33 29.89 1012 10 16.0934 0 0
1:53 pm 13:53 Mostly Sunny 66 18.9 7 -13.9 10 10 NNW 25 41 29.87 1011 10 16.0934 0 0
2:53 pm 14:53 Sunny 67 19.4 5 -15 8 8 N 28 44 29.85 1011 10 16.0934 0 0
3:53 pm 15:53 Sunny 67 19.4 2 -16.7 7 7 N 21 33 29.86 1011 10 16.0934 0 0
4:53 pm 16:53 Sunny 66 18.9 2 -16.7 8 8 NNW 29 46 29.88 1012 10 16.0934 0 0
5:53 pm 17:53 Sunny 64 17.8 1 -17.2 8 8 N 25 41 29.91 1013 10 16.0934 0 0
6:53 pm 18:53 Sunny 62 16.7 0 -17.8 8 8 NNW 25 41 29.93 1014 10 16.0934 0 0
7:53 pm 19:53 Clear 60 15.6 3 -16.1 10 10 NNW 22 35 29.97 1015 10 16.0934 0 0
8:53 pm 20:53 Clear 59 15 10 -12.2 14 14 NNW 21 33 30.02 1017 10 16.0934 0 0
9:53 pm 21:53 Clear 56 13.3 14 -10 19 19 NNW 13 20 30.06 1018 10 16.0934 0 0
10:53 pm 22:53 Clear 55 12.8 12 -11.1 18 18 NW 21 33 30.08 1019 10 16.0934 0 0
11:53 pm 23:53 Clear 54 12.2 16 -8.9 22 22 NNW 15 24 30.1 1019 10 16.0934 0 0

Powered by AerisWeather